TimeEDT,TemperatureF,Dew PointF,Humidity,Sea Level PressureIn,VisibilityMPH,Wind Direction,Wind SpeedMPH,Gust SpeedMPH,PrecipitationIn,Events,Conditions,WindDirDegrees,DateUTC
12:00 AM,45.0,18.0,34,29.84,-9999.0,WNW,10.4,27.6,N/A,,Clear,300,2013-03-20 04:00:00
2:00 AM,42.1,18.0,38,29.88,-9999.0,WNW,13.8,20.7,N/A,,Clear,300,2013-03-20 06:00:00
3:00 AM,41.0,19.0,41,29.90,-9999.0,West,15.0,27.6,N/A,,Clear,280,2013-03-20 07:00:00
4:00 AM,39.9,19.9,45,29.91,-9999.0,West,9.2,-,N/A,,Clear,280,2013-03-20 08:00:00
4:10 AM,-9999,-9999,N/A,-9999,-9999.0,North,-9999.0,-,N/A,,Unknown,0,2013-03-20 08:10:00
5:00 AM,39.0,19.0,45,29.91,-9999.0,West,8.1,-,N/A,,Clear,280,2013-03-20 09:00:00
6:22 AM,-9999,-9999,N/A,-9999,-9999.0,North,-9999.0,-,N/A,,Unknown,0,2013-03-20 10:22:00
7:00 AM,36.0,19.0,50,29.92,-9999.0,West,9.2,-,N/A,,Clear,280,2013-03-20 11:00:00
9:00 AM,45.0,17.1,33,29.91,-9999.0,West,19.6,25.3,N/A,,Clear,280,2013-03-20 13:00:00
10:00 AM,46.9,17.1,30,29.91,-9999.0,West,17.3,26.5,N/A,,Clear,280,2013-03-20 14:00:00
11:00 AM,48.9,17.1,28,29.90,-9999.0,WNW,19.6,27.6,N/A,,Clear,290,2013-03-20 15:00:00
12:00 PM,51.1,17.1,26,29.88,-9999.0,West,17.3,24.2,N/A,,Clear,280,2013-03-20 16:00:00
1:00 PM,53.1,16.0,23,29.86,-9999.0,West,20.7,27.6,N/A,,Clear,280,2013-03-20 17:00:00
2:00 PM,55.0,17.1,23,29.84,-9999.0,West,16.1,25.3,N/A,,Clear,270,2013-03-20 18:00:00
3:00 PM,55.9,18.0,23,29.82,-9999.0,WSW,21.9,27.6,N/A,,Scattered Clouds,250,2013-03-20 19:00:00
4:00 PM,53.1,15.1,22,29.81,-9999.0,West,15.0,25.3,N/A,,Overcast,260,2013-03-20 20:00:00
5:00 PM,55.0,15.1,21,29.80,-9999.0,WNW,16.1,-,N/A,,Overcast,290,2013-03-20 21:00:00
6:00 PM,53.1,14.0,21,29.80,-9999.0,WSW,13.8,20.7,N/A,,Mostly Cloudy,250,2013-03-20 22:00:00
7:00 PM,54.0,17.1,23,29.80,-9999.0,WSW,3.5,-,N/A,,Mostly Cloudy,240,2013-03-20 23:00:00
8:00 PM,50.0,19.0,29,29.79,-9999.0,SSW,3.5,-,N/A,,Overcast,200,2013-03-21 00:00:00
9:00 PM,45.0,25.0,46,29.81,-9999.0,Calm,Calm,-,N/A,,Overcast,0,2013-03-21 01:00:00
10:00 PM,50.0,23.0,35,29.82,-9999.0,South,4.6,-,N/A,,Overcast,180,2013-03-21 02:00:00
11:00 PM,52.0,21.0,30,29.81,-9999.0,WSW,5.8,-,N/A,,Overcast,240,2013-03-21 03:00:00